Location: Saint John
(45.2733°N, 66.0633°W)
Time: 15:57:26
(UTC-03:00)

X-37B - Visible Passes

Search period start: 19 October 2021 00:00
Search period end: 29 October 2021 00:00
Orbit: 385 x 389 km, 45.0° (Epoch: 17 October)

Date Brightness Start Highest point End Pass type
(mag) Time Alt. Az. Time Alt. Az. Time Alt. Az.
19 Oct 0.6 19:24:30 10° W 19:27:41 80° S 19:29:55 18° E visible
19 Oct 3.4 21:01:08 10° W 21:02:11 19° W 21:02:11 19° W visible
20 Oct 0.5 20:02:46 10° W 20:05:57 86° S 20:06:23 63° ESE visible
21 Oct 0.6 19:04:23 10° W 19:07:34 88° S 19:10:36 11° E visible
21 Oct 2.5 20:41:02 10° W 20:42:53 30° W 20:42:53 30° W visible
22 Oct 0.6 19:42:39 10° W 19:45:49 74° SSW 19:47:07 32° ESE visible
23 Oct 1.8 20:20:59 10° W 20:23:42 37° SW 20:23:42 37° SW visible
24 Oct 1.1 19:22:33 10° W 19:25:41 55° SSW 19:28:04 16° ESE visible
24 Oct 3.8 20:59:53 10° WSW 21:00:21 12° WSW 21:00:21 12° WSW visible
25 Oct 2.5 20:01:03 10° W 20:03:43 25° SSW 20:04:49 20° S visible
26 Oct 1.9 19:02:31 10° W 19:05:30 38° SSW 19:08:28 10° SE visible
27 Oct 3.4 19:41:26 10° WSW 19:43:24 15° SSW 19:45:22 10° S visible
28 Oct 2.8 18:42:35 10° W 18:45:14 24° SSW 18:47:54 10° SSE visible
